Wind_Speed
32 34 35 36 36 37 38 38 38 38 38 38 38 39 39 39 40 40 41 41 41 41 42 43 43 43 44 44 44 44 44 44 44 44 44 44 45 45 45 44 44 43 44
32 33 35 35 36 37 37 38 38 38 39 39 39 40 40 40 40 40 41 42 42 42 42 43 43 44 44 44 45 45 45 45 45 45 45 45 45 45 44 44 44 43 44
30 31 33 34 35 35 36 37 38 38 38 39 39 40 40 41 41 41 41 42 42 43 43 43 43 44 44 45 45 46 46 46 46 45 45 45 45 45 44 45 45 45 45
29 30 32 33 34 34 36 36 37 37 38 38 39 40 41 41 42 42 42 41 42 42 42 43 43 43 44 45 45 46 47 46 46 45 45 45 45 45 45 46 46 46 46
28 29 30 32 33 34 35 36 37 37 38 38 39 39 40 41 41 41 41 41 41 41 41 42 42 43 44 45 45 45 45 46 46 45 45 45 46 46 47 46 46 46 46
28 28 28 30 32 33 34 35 36 37 37 38 38 39 39 39 39 40 40 40 40 40 41 42 42 43 43 44 43 44 44 45 45 45 45 45 46 46 47 47 46 45 45
28 28 27 28 29 30 32 34 35 36 37 38 38 38 38 38 39 39 40 39 39 40 41 41 42 42 42 43 43 44 44 44 44 44 45 46 46 46 46 46 45 45 45
27 27 27 27 27 28 30 31 33 34 35 36 37 38 38 39 39 40 40 41 40 40 40 40 41 42 42 42 43 44 43 43 44 45 45 44 45 45 45 45 45 45 44
26 26 26 27 28 28 28 29 30 31 33 34 34 35 37 38 39 39 40 41 41 40 40 40 40 40 41 41 42 42 42 43 43 43 43 43 43 42 42 43 43 43 43
25 26 26 26 27 28 28 29 30 32 33 33 34 34 34 34 35 36 37 38 39 40 41 41 40 40 40 40 41 41 41 42 42 42 41 41 41 41 41 41 42 42 42
26 26 26 27 28 28 28 29 30 31 32 33 33 33 34 34 34 35 35 36 38 39 39 39 39 41 41 41 40 40 41 40 40 40 40 40 40 41 41 41 41 41 41
26 27 27 27 28 28 28 29 30 30 31 31 31 32 33 34 34 35 35 36 37 37 37 37 37 38 39 40 40 40 40 40 40 40 40 40 39 39 39 39 40 40 40
28 27 28 28 28 28 28 28 29 30 30 30 30 31 31 32 33 34 35 35 35 36 36 36 36 37 38 38 39 39 39 39 40 39 39 38 38 37 37 37 37 38 38
29 28 28 28 27 27 28 28 28 28 29 29 29 29 30 30 31 32 33 34 34 35 35 36 36 36 36 36 37 38 38 38 39 38 37 36 36 36 35 35 36 36 35
28 28 28 27 27 27 27 27 28 28 28 28 28 29 29 30 31 31 31 32 33 34 34 35 35 35 36 37 37 37 37 38 37 36 35 34 34 34 34 34 34 35 35
27 27 27 27 27 27 27 28 28 28 28 29 29 29 29 30 31 31 32 32 33 33 33 34 34 35 36 36 36 37 36 36 36 36 35 34 34 34 33 33 33 33 34
27 27 27 27 27 28 27 27 27 27 28 28 29 30 30 31 31 32 33 33 33 33 34 34 35 35 36 36 36 36 36 35 35 35 35 35 34 34 33 33 33 33 33
27 27 27 27 28 28 28 27 26 26 27 28 29 29 30 31 31 32 32 33 34 34 34 35 35 35 35 35 35 35 35 34 34 35 34 34 34 33 33 33 33 32 32
27 27 27 28 27 27 27 27 27 27 27 28 28 28 29 30 30 32 32 33 33 34 34 35 34 35 35 35 34 34 34 34 34 33 33 32 32 32 32 32 32 31 31
27 27 27 27 27 27 27 27 28 28 28 28 28 29 30 30 30 31 32 33 33 34 34 34 34 34 34 34 33 33 33 33 32 32 31 30 30 30 30 30 30 29 29
27 27 27 27 27 27 27 28 28 28 29 29 29 29 30 30 30 31 32 33 34 35 35 34 33 33 32 32 32 31 31 30 30 31 31 30 30 30 29 29 28 28 28
27 27 27 27 27 28 28 28 28 28 29 29 29 30 30 30 31 31 32 32 33 33 33 32 32 31 31 31 30 30 29 29 29 29 29 29 28 28 28 28 27 26 27
27 27 26 27 28 28 28 28 28 28 29 29 30 30 30 31 32 31 30 30 30 30 30 30 30 30 30 29 29 28 28 28 28 28 28 27 27 27 27 28 27 27 27
26 26 26 27 28 28 28 29 29 29 29 29 30 30 30 30 30 30 29 29 28 29 29 29 28 28 28 28 28 27 27 27 27 27 27 27 27 27 27 27 27 27 25
25 26 26 27 27 28 28 28 29 29 29 28 28 28 28 28 28 28 27 27 27 27 27 26 26 25 25 25 26 26 25 25 25 25 25 26 26 26 26 26 26 26 25
23 24 25 26 26 27 27 26 27 27 27 26 27 27 27 27 26 25 25 25 25 24 23 22 22 21 22 22 23 23 23 23 23 23 23 23 24 24 24 24 25 25 25
Wind_Direction
262 259 259 259 259 260 259 259 258 259 259 259 259 259 260 262 262 262 262 262 262 262 263 264 264 264 264 264 264 265 265 265 266 267 267 267 268 269 269 269 269 270 270
264 262 259 258 259 259 259 259 259 259 259 260 260 260 261 262 263 263 263 263 263 263 264 264 265 265 265 265 265 265 265 265 266 266 266 267 267 267 268 268 268 269 270
266 264 260 259 259 259 259 258 258 259 260 260 261 262 262 263 263 264 264 263 264 264 264 264 265 265 265 265 265 265 266 266 266 266 267 267 267 267 267 267 267 268 269
268 266 262 260 259 258 258 258 259 259 260 261 262 263 264 264 265 264 264 264 264 264 265 265 265 265 265 265 265 266 266 266 266 267 268 268 268 267 268 267 268 268 269
269 267 265 262 260 259 259 259 259 259 261 262 263 265 265 265 265 264 264 264 264 264 265 265 265 265 265 266 265 265 265 266 267 267 268 269 269 269 269 268 268 268 269
269 268 267 265 263 262 261 260 260 261 262 263 265 266 266 266 264 264 264 264 265 265 265 266 266 267 267 266 265 265 265 267 267 268 270 270 270 269 269 268 267 267 269
269 268 268 268 267 265 264 262 263 263 263 264 265 266 267 265 264 264 264 265 265 266 266 266 267 267 267 266 266 266 266 267 268 269 270 270 270 270 269 268 268 268 269
270 269 268 268 268 268 267 265 263 264 264 265 266 267 266 266 265 265 265 265 266 267 268 268 267 266 266 266 266 266 265 267 268 269 270 270 270 270 269 269 268 269 269
271 270 269 268 268 269 268 267 267 267 267 267 268 268 267 267 266 266 266 266 267 268 268 268 268 267 266 266 266 266 266 266 267 268 269 269 269 269 269 268 268 269 269
271 271 271 270 269 269 269 269 269 269 270 270 269 270 269 268 267 267 267 266 267 269 269 269 267 267 266 266 266 267 266 267 267 268 269 270 269 268 269 269 268 268 268
269 271 272 272 271 272 272 271 271 271 273 273 272 272 271 268 267 268 269 269 269 269 269 269 268 267 265 265 265 266 267 268 269 270 271 270 270 269 268 268 268 269 270
270 270 271 272 273 273 273 274 273 275 275 275 274 273 272 270 269 269 270 270 271 272 272 270 270 268 266 266 265 265 267 268 269 270 271 270 269 268 268 268 268 268 270
270 271 272 274 275 274 273 275 275 277 277 275 275 274 272 271 271 272 271 271 272 272 272 272 272 271 269 268 266 266 267 268 269 270 269 269 269 269 269 269 268 269 270
271 272 273 274 275 276 276 276 277 278 277 275 275 274 273 272 273 274 274 273 272 273 273 273 273 272 271 270 269 268 268 268 269 269 268 268 269 269 269 269 268 269 269
271 270 272 273 274 275 277 278 278 278 277 276 274 274 274 273 274 275 277 277 276 275 274 274 273 273 273 271 270 270 270 270 270 269 268 268 269 270 269 269 269 268 268
272 271 271 272 274 275 277 279 280 279 277 277 277 276 275 275 275 277 278 279 278 277 276 276 275 274 273 272 271 270 271 271 270 269 268 269 270 270 269 268 269 268 268
273 271 268 269 272 275 277 280 280 279 279 278 278 277 276 276 276 278 278 278 278 277 276 276 276 276 275 273 271 270 270 270 269 268 267 268 268 268 267 268 269 268 267
271 270 269 270 272 274 276 278 280 280 280 280 280 279 278 278 278 278 278 278 278 278 277 277 278 277 275 273 271 270 269 269 269 267 266 266 267 266 266 266 268 267 267
271 271 271 272 273 275 276 277 279 281 282 282 282 282 281 279 279 279 280 279 278 278 277 278 278 278 276 273 271 270 268 267 267 266 265 265 265 265 265 265 265 267 267
272 272 272 273 273 274 276 277 279 281 282 283 283 283 282 280 280 281 281 281 280 279 278 279 279 278 277 274 271 270 268 266 265 264 264 264 264 264 265 265 265 266 268
271 271 272 271 272 273 274 276 279 281 282 283 284 284 282 279 280 281 281 281 280 279 278 278 277 277 275 273 271 269 269 266 264 263 263 263 264 263 264 265 266 267 269
271 272 271 271 271 274 275 276 278 281 283 283 284 284 283 282 282 283 283 282 282 281 279 277 275 274 273 272 271 269 268 265 263 262 261 261 261 262 263 263 264 266 269
272 272 271 271 271 274 275 276 278 281 283 284 284 284 284 284 284 284 283 282 282 281 279 278 275 273 273 272 271 269 267 264 262 260 260 261 260 261 262 261 262 265 268
270 270 270 270 272 274 277 278 280 282 284 284 285 284 285 286 285 284 283 282 282 281 279 279 276 274 272 271 270 267 265 263 261 259 260 260 259 260 260 261 263 265 267
270 271 272 272 273 276 279 281 282 283 284 284 285 285 285 285 285 283 283 282 282 281 280 279 276 274 272 271 269 268 265 262 260 259 259 258 256 257 259 260 262 264 266
273 274 274 274 276 278 279 280 281 283 284 284 285 285 285 284 284 283 283 283 281 280 280 279 276 272 271 269 267 266 262 260 260 259 259 257 256 257 258 260 262 264 265
Height
5704 5704 5705 5706 5707 5708 5709 5710 5711 5712 5713 5714 5715 5716 5717 5718 5718 5718 5719 5719 5719 5719 5719 5720 5720 5720 5720 5720 5720 5720 5720 5720 5720 5720 5720 5720 5719 5719 5718 5718 5718 5717 5717
5695 5695 5696 5697 5698 5699 5700 5701 5702 5703 5704 5705 5706 5707 5707 5708 5708 5708 5708 5709 5709 5709 5709 5709 5709 5709 5709 5709 5709 5709 5709 5709 5708 5708 5708 5709 5709 5708 5708 5707 5706 5706 5706
5687 5687 5687 5688 5689 5690 5690 5691 5692 5693 5694 5695 5696 5697 5697 5698 5698 5698 5698 5698 5698 5698 5698 5699 5699 5698 5698 5698 5698 5698 5698 5697 5697 5696 5696 5696 5697 5697 5697 5696 5696 5695 5695
5679 5678 5678 5679 5680 5680 5681 5681 5683 5684 5684 5685 5686 5687 5687 5688 5688 5688 5687 5687 5687 5687 5688 5688 5687 5687 5687 5687 5686 5686 5686 5686 5686 5685 5685 5685 5684 5685 5685 5685 5684 5683 5683
5671 5670 5670 5670 5671 5671 5671 5672 5673 5674 5675 5675 5676 5676 5677 5677 5677 5677 5677 5677 5677 5677 5677 5676 5676 5676 5676 5675 5675 5675 5674 5674 5674 5674 5673 5673 5672 5671 5672 5672 5672 5671 5670
5663 5662 5662 5662 5662 5662 5662 5663 5663 5664 5665 5665 5666 5666 5666 5666 5666 5666 5666 5666 5666 5666 5666 5666 5665 5665 5664 5664 5663 5663 5663 5663 5662 5662 5661 5660 5660 5659 5659 5659 5659 5659 5658
5655 5655 5654 5654 5653 5653 5653 5653 5654 5654 5654 5655 5655 5655 5655 5655 5656 5656 5656 5656 5656 5655 5655 5655 5654 5654 5653 5653 5652 5652 5651 5651 5651 5650 5649 5648 5647 5646 5646 5646 5646 5646 5646
5647 5646 5646 5645 5645 5645 5644 5644 5644 5644 5644 5645 5645 5645 5645 5645 5645 5645 5645 5645 5645 5645 5644 5644 5643 5642 5642 5641 5641 5641 5640 5640 5639 5639 5638 5636 5635 5634 5633 5633 5633 5634 5634
5639 5638 5638 5637 5637 5636 5636 5636 5635 5635 5635 5635 5635 5635 5635 5634 5634 5634 5634 5633 5633 5633 5633 5632 5632 5631 5631 5630 5630 5630 5629 5629 5628 5627 5626 5625 5624 5623 5622 5622 5621 5621 5622
5631 5630 5630 5629 5628 5628 5627 5627 5627 5626 5626 5625 5625 5625 5624 5624 5624 5623 5623 5623 5622 5622 5621 5621 5620 5620 5620 5619 5619 5619 5618 5618 5617 5616 5615 5614 5613 5612 5611 5610 5610 5609 5610
5623 5623 5622 5621 5620 5619 5619 5618 5618 5617 5617 5616 5615 5615 5614 5614 5614 5613 5613 5612 5611 5611 5610 5609 5609 5608 5608 5608 5608 5608 5607 5606 5605 5605 5604 5603 5601 5600 5600 5599 5599 5598 5598
5615 5614 5614 5613 5612 5611 5610 5609 5608 5608 5607 5606 5606 5605 5604 5604 5603 5603 5602 5602 5601 5600 5599 5598 5597 5597 5597 5596 5596 5596 5596 5595 5594 5593 5592 5591 5590 5589 5588 5588 5588 5587 5587
5606 5606 5606 5605 5603 5602 5601 5600 5599 5599 5598 5597 5596 5595 5594 5594 5593 5592 5591 5591 5590 5589 5588 5587 5587 5586 5586 5585 5585 5585 5584 5584 5583 5582 5581 5581 5580 5579 5578 5577 5577 5577 5577
5598 5598 5597 5596 5595 5594 5593 5591 5591 5589 5588 5587 5587 5586 5585 5584 5583 5582 5581 5581 5580 5579 5578 5577 5576 5576 5575 5574 5574 5573 5573 5573 5572 5571 5571 5570 5570 5569 5568 5567 5567 5567 5567
5589 5589 5588 5588 5587 5586 5584 5583 5582 5581 5579 5578 5578 5577 5576 5575 5574 5573 5572 5571 5570 5568 5568 5567 5566 5566 5565 5564 5563 5563 5562 5562 5561 5561 5560 5560 5560 5559 5558 5558 5558 5558 5557
5581 5580 5580 5579 5578 5577 5576 5575 5573 5572 5571 5570 5569 5567 5566 5566 5565 5564 5563 5561 5560 5558 5557 5557 5556 5555 5554 5554 5553 5552 5552 5551 5551 5551 5550 5550 5550 5549 5549 5549 5548 5548 5548
5572 5571 5571 5570 5569 5568 5567 5566 5565 5563 5562 5561 5560 5559 5557 5556 5555 5554 5553 5552 5550 5548 5547 5546 5545 5545 5544 5543 5542 5542 5541 5541 5541 5540 5540 5540 5540 5540 5540 5539 5539 5539 5539
5563 5563 5562 5562 5561 5560 5559 5558 5556 5555 5554 5552 5551 5550 5548 5547 5546 5545 5543 5542 5540 5539 5537 5536 5535 5534 5533 5532 5532 5531 5531 5531 5531 5531 5531 5531 5531 5530 5530 5530 5530 5530 5530
5554 5554 5553 5553 5552 5551 5550 5549 5548 5546 5545 5544 5542 5540 5539 5538 5536 5535 5533 5531 5530 5528 5527 5526 5524 5523 5522 5522 5521 5521 5520 5521 5521 5521 5521 5521 5521 5521 5521 5521 5521 5521 5522
5545 5545 5544 5544 5543 5542 5542 5541 5539 5538 5537 5535 5533 5532 5530 5528 5527 5525 5524 5522 5520 5518 5517 5515 5514 5513 5512 5511 5511 5510 5510 5511 5511 5511 5512 5512 5512 5513 5512 5513 5513 5513 5513
5536 5536 5536 5535 5534 5534 5533 5532 5531 5530 5528 5526 5524 5523 5521 5519 5518 5516 5514 5512 5510 5508 5506 5505 5504 5503 5502 5501 5501 5500 5500 5501 5501 5502 5502 5503 5504 5504 5504 5505 5505 5505 5505
5527 5527 5527 5526 5526 5525 5524 5523 5522 5521 5519 5517 5515 5513 5512 5510 5508 5506 5504 5502 5500 5498 5496 5495 5494 5493 5492 5492 5492 5491 5492 5492 5492 5493 5494 5495 5495 5496 5497 5497 5497 5497 5497
5519 5518 5518 5518 5517 5516 5516 5515 5513 5512 5510 5508 5506 5504 5502 5500 5498 5496 5494 5492 5490 5488 5486 5486 5485 5484 5483 5483 5483 5483 5483 5483 5484 5485 5486 5487 5487 5488 5489 5489 5489 5489 5490
5510 5510 5509 5509 5509 5508 5507 5506 5504 5503 5501 5499 5497 5495 5493 5490 5488 5486 5484 5482 5480 5479 5477 5476 5476 5475 5475 5475 5475 5474 5475 5475 5476 5477 5478 5478 5479 5480 5481 5482 5482 5482 5482
5501 5501 5501 5501 5500 5499 5498 5497 5495 5494 5492 5490 5488 5485 5483 5481 5479 5477 5475 5474 5472 5470 5469 5468 5467 5467 5467 5466 5466 5466 5467 5468 5468 5469 5470 5470 5471 5472 5473 5474 5474 5475 5475
5494 5493 5493 5492 5492 5491 5489 5488 5486 5484 5483 5481 5479 5477 5475 5473 5471 5469 5467 5465 5464 5463 5461 5460 5459 5459 5459 5458 5459 5459 5459 5460 5461 5462 5462 5463 5464 5465 5466 5467 5467 5467 5468